SKW5506 KDEN-KACV

Flight info

Callsign SKW5506
Flight time 2h 42m
Altitude 36000
Route ZIMMR4 CHNGY WAATS Q124 BVL LOKEY KO66E ACV
Aircraft CRJ7/M-SDFGIRWY/S

Departure

Time 2026-04-18 03:10
Airport Denver International Airport (KDEN)

Arrival

Time 2026-04-18 05:52
Airport California Redwood Coast-Humboldt County Airport (KACV)
Time Latitude Longitude Altitude Speed Heading
2026-04-18 01:47 39.85749 -104.66587 5383 ft 0 kts 358°
2026-04-18 02:48 39.85735 -104.66587 5384 ft 3 kts 358°
2026-04-18 02:49 39.85717 -104.66586 5384 ft 3 kts 358°
2026-04-18 02:49 39.85699 -104.66585 5385 ft 3 kts 358°
2026-04-18 02:49 39.85681 -104.66584 5384 ft 3 kts 358°
2026-04-18 02:49 39.85665 -104.66583 5382 ft 0 kts 358°
2026-04-18 02:52 39.85664 -104.66583 5386 ft 0 kts 358°
2026-04-18 02:56 39.85666 -104.66584 5386 ft 1 kts 349°
2026-04-18 02:57 39.85670 -104.66586 5386 ft 1 kts 319°
2026-04-18 02:57 39.85672 -104.66590 5386 ft 0 kts 292°
2026-04-18 02:57 39.85673 -104.66609 5385 ft 4 kts 262°
2026-04-18 02:57 39.85654 -104.66661 5385 ft 9 kts 240°
2026-04-18 02:58 39.85620 -104.66734 5383 ft 11 kts 232°
2026-04-18 02:58 39.85589 -104.66810 5382 ft 10 kts 263°
2026-04-18 02:58 39.85586 -104.66900 5381 ft 8 kts 269°
2026-04-18 02:58 39.85586 -104.66993 5381 ft 12 kts 270°
2026-04-18 02:59 39.85588 -104.67120 5380 ft 13 kts 271°
2026-04-18 02:59 39.85585 -104.67256 5379 ft 17 kts 266°
2026-04-18 02:59 39.85578 -104.67411 5381 ft 16 kts 267°
2026-04-18 02:59 39.85576 -104.67558 5378 ft 16 kts 269°
2026-04-18 03:00 39.85576 -104.67684 5376 ft 13 kts 273°
2026-04-18 03:00 39.85582 -104.67815 5378 ft 16 kts 278°
2026-04-18 03:00 39.85595 -104.67930 5377 ft 13 kts 270°
2026-04-18 03:00 39.85594 -104.68037 5377 ft 9 kts 271°
2026-04-18 03:01 39.85594 -104.68051 5377 ft 0 kts 271°
2026-04-18 03:02 39.85594 -104.68052 5377 ft 1 kts 271°
2026-04-18 03:02 39.85595 -104.68082 5391 ft 7 kts 271°
2026-04-18 03:03 39.85597 -104.68176 5377 ft 13 kts 271°
2026-04-18 03:03 39.85599 -104.68287 5374 ft 15 kts 270°
2026-04-18 03:03 39.85646 -104.68393 5370 ft 19 kts 351°
2026-04-18 03:03 39.85767 -104.68396 5369 ft 18 kts 359°
2026-04-18 03:04 39.85890 -104.68400 5364 ft 19 kts 360°
2026-04-18 03:04 39.85994 -104.68401 5365 ft 16 kts 338°
2026-04-18 03:04 39.86033 -104.68539 5362 ft 19 kts 271°
2026-04-18 03:04 39.86033 -104.68667 5360 ft 7 kts 272°
2026-04-18 03:05 39.86036 -104.68769 5359 ft 14 kts 272°
2026-04-18 03:05 39.86039 -104.68865 5358 ft 12 kts 271°
2026-04-18 03:05 39.86036 -104.68995 5356 ft 11 kts 269°
2026-04-18 03:05 39.86035 -104.69112 5353 ft 16 kts 270°
2026-04-18 03:06 39.86035 -104.69256 5349 ft 17 kts 270°
2026-04-18 03:06 39.86017 -104.69399 5339 ft 17 kts 227°
2026-04-18 03:06 39.85928 -104.69435 5336 ft 13 kts 182°
2026-04-18 03:06 39.85822 -104.69439 5339 ft 14 kts 181°
2026-04-18 03:07 39.85721 -104.69440 5337 ft 16 kts 180°
2026-04-18 03:07 39.85602 -104.69439 5337 ft 12 kts 180°
2026-04-18 03:07 39.85493 -104.69442 5334 ft 19 kts 181°
2026-04-18 03:07 39.85385 -104.69445 5334 ft 17 kts 181°
2026-04-18 03:08 39.85260 -104.69450 5335 ft 13 kts 188°
2026-04-18 03:08 39.85200 -104.69523 5335 ft 3 kts 262°
2026-04-18 03:08 39.85202 -104.69581 5336 ft 10 kts 272°
2026-04-18 03:08 39.85235 -104.69659 5331 ft 12 kts 356°
2026-04-18 03:09 39.85256 -104.69659 5335 ft 1 kts 357°
2026-04-18 03:09 39.85257 -104.69660 5335 ft 0 kts 357°
2026-04-18 03:09 39.85366 -104.69663 5333 ft 39 kts
2026-04-18 03:09 39.85824 -104.69656 5338 ft 96 kts
2026-04-18 03:10 39.86690 -104.69668 5331 ft 150 kts
2026-04-18 03:10 39.87792 -104.69599 5556 ft 169 kts
2026-04-18 03:10 39.89088 -104.69520 5785 ft 206 kts
2026-04-18 03:10 39.90576 -104.69479 6599 ft 217 kts 356°
2026-04-18 03:11 39.92010 -104.69871 7651 ft 208 kts 332°
2026-04-18 03:11 39.93109 -104.71041 8558 ft 201 kts 304°
2026-04-18 03:11 39.93641 -104.72719 9047 ft 212 kts 279°
2026-04-18 03:11 39.93563 -104.74665 9633 ft 218 kts 257°
2026-04-18 03:12 39.92925 -104.76412 10531 ft 209 kts 240°
2026-04-18 03:12 39.92069 -104.77873 11322 ft 195 kts 235°
2026-04-18 03:12 39.91162 -104.79183 11373 ft 202 kts 232°
2026-04-18 03:12 39.90125 -104.80621 10942 ft 231 kts 231°
2026-04-18 03:13 39.89038 -104.82151 11208 ft 222 kts 232°
2026-04-18 03:13 39.88074 -104.83555 11843 ft 197 kts 234°
2026-04-18 03:13 39.87177 -104.85008 11887 ft 220 kts 241°
2026-04-18 03:13 39.86427 -104.86855 12035 ft 235 kts 253°
2026-04-18 03:14 39.86024 -104.88794 13101 ft 206 kts 266°
2026-04-18 03:14 39.85967 -104.90559 14017 ft 191 kts 277°
2026-04-18 03:14 39.86183 -104.92355 14037 ft 215 kts 286°
2026-04-18 03:14 39.86639 -104.94317 14155 ft 231 kts 290°
2026-04-18 03:15 39.87160 -104.96190 15087 ft 205 kts 293°
2026-04-18 03:15 39.87716 -104.97795 15946 ft 190 kts 297°
2026-04-18 03:15 39.88393 -104.99354 15993 ft 211 kts 302°
2026-04-18 03:15 39.89274 -105.01004 15951 ft 233 kts 307°
2026-04-18 03:16 39.90162 -105.02683 16741 ft 217 kts 295°
2026-04-18 03:16 39.90667 -105.04471 17486 ft 205 kts 286°
2026-04-18 03:16 39.90976 -105.06246 18055 ft 200 kts 282°
2026-04-18 03:16 39.91214 -105.08035 18453 ft 200 kts 281°
2026-04-18 03:17 39.91437 -105.09825 18801 ft 200 kts 280°
2026-04-18 03:17 39.91657 -105.11612 19154 ft 199 kts 280°
2026-04-18 03:17 39.91888 -105.13383 19506 ft 198 kts 281°
2026-04-18 03:17 39.92136 -105.15149 19852 ft 198 kts 280°
2026-04-18 03:18 39.92385 -105.16912 20193 ft 197 kts 280°
2026-04-18 03:18 39.92635 -105.18671 20515 ft 197 kts 280°
2026-04-18 03:18 39.92884 -105.20426 20841 ft 197 kts 280°
2026-04-18 03:18 39.93131 -105.22180 21173 ft 197 kts 279°
2026-04-18 03:19 39.93377 -105.23931 21480 ft 196 kts 279°
2026-04-18 03:19 39.93625 -105.25678 21786 ft 196 kts 279°
2026-04-18 03:19 39.93871 -105.27424 22107 ft 196 kts 279°
2026-04-18 03:19 39.94117 -105.29170 22397 ft 195 kts 279°
2026-04-18 03:20 39.94362 -105.30913 22515 ft 196 kts 278°
2026-04-18 03:20 39.94609 -105.32684 22527 ft 204 kts 278°
2026-04-18 03:20 39.94870 -105.34558 22577 ft 216 kts 278°
2026-04-18 03:20 39.95148 -105.36547 22629 ft 230 kts 278°
2026-04-18 03:21 39.95441 -105.38651 22669 ft 243 kts 279°
2026-04-18 03:21 39.95749 -105.40872 22714 ft 256 kts 279°
2026-04-18 03:21 39.96068 -105.43181 22761 ft 269 kts 279°
2026-04-18 03:21 39.96415 -105.45670 22801 ft 281 kts 279°
2026-04-18 03:22 39.96760 -105.48207 22874 ft 296 kts 278°
2026-04-18 03:22 39.97129 -105.50912 22998 ft 309 kts 279°
2026-04-18 03:22 39.97515 -105.53726 23077 ft 321 kts 279°
2026-04-18 03:22 39.97916 -105.56630 23087 ft 332 kts 279°
2026-04-18 03:23 39.98323 -105.59594 23518 ft 332 kts 278°
2026-04-18 03:23 39.98734 -105.62557 23901 ft 333 kts 278°
2026-04-18 03:23 39.99140 -105.65545 24155 ft 334 kts 278°
2026-04-18 03:23 39.99554 -105.68530 24410 ft 336 kts 278°
2026-04-18 03:24 39.99977 -105.71540 24722 ft 338 kts 278°
2026-04-18 03:24 40.00396 -105.74550 25051 ft 339 kts 278°
2026-04-18 03:24 40.00822 -105.77577 25337 ft 340 kts 278°
2026-04-18 03:24 40.01242 -105.80626 25623 ft 342 kts 278°
2026-04-18 03:25 40.01659 -105.83696 25886 ft 344 kts 278°
2026-04-18 03:25 40.02070 -105.86781 26149 ft 346 kts 278°
2026-04-18 03:25 40.02479 -105.89843 26379 ft 347 kts 278°
2026-04-18 03:25 40.02897 -105.92953 26648 ft 349 kts 278°
2026-04-18 03:26 40.03317 -105.96082 26906 ft 351 kts 278°
2026-04-18 03:26 40.03740 -105.99223 27139 ft 352 kts 278°
2026-04-18 03:26 40.04161 -106.02375 27378 ft 354 kts 278°
2026-04-18 03:26 40.04583 -106.05545 27598 ft 355 kts 278°
2026-04-18 03:27 40.05006 -106.08727 27842 ft 356 kts 278°
2026-04-18 03:27 40.05430 -106.11916 28101 ft 358 kts 278°
2026-04-18 03:27 40.05856 -106.15128 28326 ft 359 kts 278°
2026-04-18 03:27 40.06281 -106.18347 28564 ft 361 kts 278°
2026-04-18 03:28 40.06709 -106.21593 28783 ft 363 kts 278°
2026-04-18 03:28 40.07136 -106.24841 28990 ft 364 kts 278°
2026-04-18 03:28 40.07563 -106.28106 29208 ft 366 kts 278°
2026-04-18 03:28 40.07993 -106.31380 29402 ft 367 kts 278°
2026-04-18 03:29 40.08423 -106.34674 29606 ft 369 kts 278°
2026-04-18 03:29 40.08855 -106.37981 29801 ft 370 kts 278°
2026-04-18 03:29 40.09286 -106.41306 29994 ft 372 kts 278°
2026-04-18 03:29 40.09719 -106.44638 30157 ft 373 kts 278°
2026-04-18 03:30 40.10151 -106.47985 30307 ft 374 kts 278°
2026-04-18 03:30 40.10586 -106.51346 30465 ft 376 kts 278°
2026-04-18 03:30 40.11021 -106.54716 30601 ft 377 kts 278°
2026-04-18 03:30 40.11455 -106.58106 30729 ft 379 kts 278°
2026-04-18 03:31 40.11890 -106.61498 30871 ft 380 kts 278°
2026-04-18 03:31 40.12327 -106.64916 31004 ft 382 kts 278°
2026-04-18 03:31 40.12763 -106.68341 31147 ft 383 kts 278°
2026-04-18 03:31 40.13200 -106.71775 31278 ft 385 kts 278°
2026-04-18 03:32 40.13638 -106.75231 31400 ft 386 kts 278°
2026-04-18 03:32 40.14077 -106.78696 31510 ft 387 kts 278°
2026-04-18 03:32 40.14514 -106.82138 31637 ft 389 kts 278°
2026-04-18 03:32 40.14955 -106.85631 31757 ft 390 kts 278°
2026-04-18 03:33 40.15401 -106.89186 31894 ft 392 kts 278°
2026-04-18 03:33 40.15836 -106.92662 31996 ft 393 kts 278°
2026-04-18 03:33 40.16725 -106.99783 32090 ft 399 kts 278°
2026-04-18 03:34 40.17170 -107.03362 32211 ft 399 kts 278°
2026-04-18 03:34 40.17615 -107.06948 32345 ft 400 kts 278°
2026-04-18 03:34 40.18061 -107.10550 32465 ft 401 kts 278°
2026-04-18 03:34 40.18505 -107.14145 32589 ft 401 kts 278°
2026-04-18 03:35 40.18948 -107.17742 32741 ft 401 kts 278°
2026-04-18 03:35 40.19392 -107.21346 32893 ft 401 kts 278°
2026-04-18 03:35 40.19833 -107.24958 33024 ft 402 kts 278°
2026-04-18 03:35 40.20276 -107.28577 33148 ft 402 kts 279°
2026-04-18 03:36 40.20714 -107.32182 33261 ft 402 kts 278°
2026-04-18 03:36 40.21155 -107.35805 33406 ft 403 kts 279°
2026-04-18 03:36 40.21593 -107.39417 33535 ft 403 kts 279°
2026-04-18 03:36 40.22030 -107.43034 33675 ft 403 kts 279°
2026-04-18 03:37 40.22465 -107.46657 33809 ft 403 kts 279°
2026-04-18 03:37 40.22900 -107.50285 33909 ft 403 kts 279°
2026-04-18 03:37 40.23334 -107.53906 34039 ft 403 kts 279°
2026-04-18 03:37 40.23763 -107.57491 34172 ft 403 kts 279°
2026-04-18 03:38 40.24196 -107.61117 34304 ft 403 kts 279°
2026-04-18 03:38 40.24619 -107.64674 34410 ft 403 kts 279°
2026-04-18 03:38 40.25049 -107.68297 34525 ft 403 kts 279°
2026-04-18 03:38 40.25478 -107.71922 34645 ft 402 kts 279°
2026-04-18 03:39 40.25905 -107.75539 34774 ft 402 kts 279°
2026-04-18 03:39 40.26331 -107.79159 34854 ft 402 kts 279°
2026-04-18 03:39 40.26755 -107.82779 34974 ft 402 kts 279°
2026-04-18 03:39 40.27178 -107.86390 35070 ft 401 kts 279°
2026-04-18 03:40 40.28019 -107.93617 35294 ft 401 kts 279°
2026-04-18 03:40 40.28856 -108.00835 35495 ft 401 kts 279°
2026-04-18 03:41 40.29272 -108.04445 35616 ft 400 kts 279°
2026-04-18 03:41 40.29547 -108.06836 35662 ft 401 kts 279°
2026-04-18 03:41 40.30101 -108.11661 35809 ft 400 kts 279°
2026-04-18 03:41 40.30375 -108.14056 35855 ft 401 kts 279°
2026-04-18 03:42 40.30786 -108.17663 35973 ft 400 kts 279°
2026-04-18 03:42 40.31197 -108.21268 36076 ft 400 kts 279°
2026-04-18 03:42 40.32014 -108.28476 36217 ft 401 kts 279°
2026-04-18 03:43 40.32831 -108.35739 36238 ft 405 kts 279°
2026-04-18 03:43 40.33652 -108.43067 36255 ft 408 kts 279°
2026-04-18 03:44 40.34476 -108.50463 36260 ft 412 kts 279°
2026-04-18 03:44 40.35302 -108.57926 36260 ft 414 kts 279°
2026-04-18 03:45 40.36117 -108.65332 36256 ft 407 kts 279°
2026-04-18 03:45 40.36905 -108.72559 36254 ft 393 kts 279°
2026-04-18 03:46 40.37669 -108.79583 36264 ft 387 kts 279°
2026-04-18 03:46 40.38422 -108.86538 36264 ft 384 kts 279°
2026-04-18 03:47 40.39170 -108.93495 36269 ft 387 kts 279°
2026-04-18 03:47 40.39923 -109.00531 36271 ft 392 kts 279°
2026-04-18 03:48 40.40678 -109.07652 36274 ft 397 kts 279°
2026-04-18 03:48 40.41440 -109.14863 36273 ft 402 kts 279°
2026-04-18 03:49 40.42201 -109.22119 36270 ft 406 kts 279°
2026-04-18 03:49 40.42972 -109.29508 36252 ft 411 kts 279°
2026-04-18 03:50 40.43746 -109.36981 36231 ft 415 kts 279°
2026-04-18 03:50 40.44522 -109.44522 36231 ft 418 kts 279°
2026-04-18 03:51 40.45298 -109.52112 36233 ft 421 kts 279°
2026-04-18 03:51 40.46075 -109.59763 36235 ft 423 kts 279°
2026-04-18 03:52 40.46845 -109.67390 36228 ft 425 kts 279°
2026-04-18 03:52 40.47616 -109.75090 36257 ft 426 kts 279°
2026-04-18 03:53 40.48383 -109.82809 36262 ft 426 kts 279°
2026-04-18 03:53 40.49148 -109.90544 36267 ft 427 kts 279°
2026-04-18 03:54 40.49907 -109.98273 36282 ft 426 kts 280°
2026-04-18 03:54 40.50659 -110.05999 36286 ft 426 kts 280°
2026-04-18 03:55 40.51406 -110.13718 36300 ft 425 kts 280°
2026-04-18 03:55 40.52145 -110.21422 36301 ft 425 kts 280°
2026-04-18 03:56 40.52881 -110.29128 36308 ft 424 kts 280°
2026-04-18 03:56 40.53611 -110.36826 36321 ft 424 kts 280°
2026-04-18 03:57 40.54690 -110.48316 36337 ft 424 kts 280°
2026-04-18 03:58 40.55406 -110.56009 36351 ft 424 kts 280°
2026-04-18 03:58 40.56118 -110.63712 36361 ft 425 kts 280°
2026-04-18 03:59 40.56821 -110.71407 36365 ft 418 kts 280°
2026-04-18 03:59 40.57495 -110.78851 36355 ft 403 kts 280°
2026-04-18 04:00 40.58143 -110.86051 36361 ft 390 kts 280°
2026-04-18 04:00 40.58775 -110.93070 36369 ft 384 kts 281°
2026-04-18 04:01 40.59394 -111.00018 36365 ft 381 kts 281°
2026-04-18 04:01 40.60000 -111.06916 36346 ft 378 kts 281°
2026-04-18 04:02 40.60595 -111.13706 36320 ft 374 kts 281°
2026-04-18 04:02 40.61186 -111.20481 36312 ft 371 kts 281°
2026-04-18 04:03 40.61768 -111.27195 36299 ft 368 kts 281°
2026-04-18 04:03 40.62340 -111.33862 36292 ft 365 kts 282°
2026-04-18 04:04 40.62909 -111.40477 36276 ft 362 kts 282°
2026-04-18 04:04 40.63468 -111.47028 36265 ft 358 kts 282°
2026-04-18 04:05 40.64018 -111.53526 36285 ft 356 kts 282°
2026-04-18 04:05 40.64555 -111.59979 36279 ft 353 kts 282°
2026-04-18 04:06 40.65092 -111.66387 36274 ft 350 kts 282°
2026-04-18 04:06 40.65612 -111.72734 36268 ft 347 kts 282°
2026-04-18 04:07 40.66131 -111.79016 36304 ft 344 kts 282°
2026-04-18 04:07 40.66640 -111.85273 36289 ft 343 kts 282°
2026-04-18 04:08 40.67141 -111.91459 36276 ft 341 kts 282°
2026-04-18 04:08 40.67647 -111.97704 36272 ft 345 kts 281°
2026-04-18 04:09 40.68153 -112.04026 36279 ft 349 kts 281°
2026-04-18 04:09 40.68661 -112.10433 36282 ft 354 kts 281°
2026-04-18 04:10 40.69173 -112.16916 36272 ft 358 kts 281°
2026-04-18 04:10 40.69687 -112.23476 36285 ft 362 kts 281°
2026-04-18 04:11 40.70203 -112.30118 36283 ft 367 kts 280°
2026-04-18 04:11 40.70716 -112.36839 36276 ft 371 kts 280°
2026-04-18 04:12 40.71235 -112.43638 36275 ft 374 kts 280°
2026-04-18 04:12 40.71679 -112.50513 36270 ft 379 kts 278°
2026-04-18 04:13 40.71932 -112.57452 36268 ft 383 kts 277°
2026-04-18 04:13 40.72097 -112.64516 36264 ft 387 kts 275°
2026-04-18 04:14 40.72167 -112.71646 36265 ft 391 kts 275°
2026-04-18 04:14 40.72230 -112.78843 36259 ft 394 kts 275°
2026-04-18 04:15 40.72289 -112.86103 36258 ft 397 kts 275°
2026-04-18 04:15 40.72343 -112.93406 36258 ft 399 kts 275°
2026-04-18 04:16 40.72395 -113.00760 36269 ft 403 kts 275°
2026-04-18 04:16 40.72440 -113.08109 36263 ft 395 kts 275°
2026-04-18 04:17 40.72479 -113.15246 36253 ft 383 kts 275°
2026-04-18 04:17 40.72512 -113.22178 36250 ft 372 kts 275°
2026-04-18 04:18 40.72525 -113.28917 36256 ft 362 kts 275°
2026-04-18 04:18 40.72556 -113.35431 36252 ft 353 kts 275°
2026-04-18 04:19 40.72576 -113.41815 36252 ft 344 kts 275°
2026-04-18 04:19 40.72592 -113.48035 36259 ft 335 kts 275°
2026-04-18 04:20 40.72604 -113.54089 36262 ft 326 kts 275°
2026-04-18 04:20 40.72615 -113.60014 36269 ft 323 kts 275°
2026-04-18 04:21 40.72621 -113.65978 36279 ft 327 kts 275°
2026-04-18 04:21 40.72626 -113.72012 36284 ft 331 kts 274°
2026-04-18 04:22 40.72739 -113.78107 36290 ft 333 kts 278°
2026-04-18 04:22 40.73311 -113.84191 36285 ft 336 kts 281°
2026-04-18 04:23 40.73877 -113.90356 36283 ft 341 kts 279°
2026-04-18 04:23 40.74402 -113.96610 36282 ft 345 kts 279°
2026-04-18 04:24 40.74934 -114.02943 36279 ft 350 kts 279°
2026-04-18 04:24 40.75464 -114.09320 36277 ft 354 kts 279°
2026-04-18 04:25 40.76002 -114.15819 36285 ft 358 kts 279°
2026-04-18 04:25 40.76541 -114.22398 36287 ft 363 kts 279°
2026-04-18 04:26 40.77083 -114.29049 36289 ft 367 kts 279°
2026-04-18 04:26 40.77626 -114.35772 36304 ft 371 kts 279°
2026-04-18 04:27 40.78173 -114.42576 36295 ft 375 kts 279°
2026-04-18 04:27 40.78731 -114.49455 36284 ft 379 kts 279°
2026-04-18 04:28 40.79279 -114.56366 36278 ft 383 kts 279°
2026-04-18 04:28 40.79830 -114.63385 36284 ft 386 kts 279°
2026-04-18 04:29 40.80383 -114.70477 36283 ft 390 kts 279°
2026-04-18 04:29 40.80936 -114.77635 36270 ft 393 kts 279°
2026-04-18 04:30 40.81394 -114.83629 36279 ft 396 kts 279°
2026-04-18 04:30 40.81947 -114.90892 36279 ft 399 kts 279°
2026-04-18 04:31 40.82499 -114.98212 36275 ft 402 kts 279°
2026-04-18 04:31 40.83051 -115.05584 36265 ft 405 kts 278°
2026-04-18 04:32 40.83600 -115.13002 36286 ft 407 kts 278°
2026-04-18 04:32 40.84149 -115.20472 36280 ft 410 kts 278°
2026-04-18 04:33 40.84696 -115.27993 36283 ft 413 kts 278°
2026-04-18 04:33 40.85243 -115.35563 36271 ft 415 kts 278°
2026-04-18 04:34 40.85787 -115.43185 36267 ft 418 kts 278°
2026-04-18 04:34 40.86328 -115.50835 36256 ft 419 kts 278°
2026-04-18 04:34 40.86589 -115.54586 36246 ft 404 kts 279°
2026-04-18 04:35 40.86843 -115.58252 36240 ft 396 kts 279°
2026-04-18 04:35 40.87339 -115.65371 36222 ft 382 kts 279°
2026-04-18 04:36 40.87799 -115.72247 36224 ft 370 kts 279°
2026-04-18 04:36 40.88253 -115.78909 36221 ft 357 kts 279°
2026-04-18 04:37 40.88690 -115.85341 36220 ft 347 kts 279°
2026-04-18 04:37 40.89119 -115.91698 36233 ft 352 kts 279°
2026-04-18 04:38 40.89551 -115.98192 36249 ft 357 kts 279°
2026-04-18 04:38 40.89986 -116.04776 36246 ft 362 kts 279°
2026-04-18 04:39 40.90421 -116.11448 36262 ft 367 kts 279°
2026-04-18 04:39 40.90862 -116.18218 36270 ft 372 kts 279°
2026-04-18 04:40 40.91304 -116.25093 36276 ft 377 kts 279°
2026-04-18 04:40 40.91754 -116.32051 36269 ft 382 kts 279°
2026-04-18 04:41 40.92196 -116.39090 36277 ft 386 kts 279°
2026-04-18 04:41 40.92643 -116.46210 36269 ft 390 kts 279°
2026-04-18 04:42 40.93088 -116.53407 36272 ft 395 kts 279°
2026-04-18 04:42 40.93532 -116.60674 36267 ft 399 kts 279°
2026-04-18 04:43 40.93976 -116.68013 36281 ft 402 kts 279°
2026-04-18 04:43 40.94420 -116.75426 36258 ft 406 kts 279°
2026-04-18 04:44 40.94863 -116.82892 36258 ft 409 kts 279°
2026-04-18 04:44 40.95300 -116.90364 36244 ft 411 kts 279°
2026-04-18 04:45 40.95739 -116.97973 36261 ft 413 kts 279°
2026-04-18 04:45 40.96170 -117.05523 36261 ft 415 kts 279°
2026-04-18 04:46 40.96597 -117.13083 36250 ft 408 kts 279°
2026-04-18 04:46 40.97011 -117.20491 36247 ft 399 kts 279°
2026-04-18 04:47 40.97411 -117.27757 36237 ft 392 kts 279°
2026-04-18 04:47 40.97800 -117.34890 36233 ft 385 kts 279°
2026-04-18 04:48 40.98177 -117.41919 36221 ft 379 kts 280°
2026-04-18 04:48 40.98546 -117.48826 36222 ft 373 kts 280°
2026-04-18 04:49 40.98893 -117.55630 36215 ft 368 kts 280°
2026-04-18 04:49 40.99245 -117.62327 36216 ft 362 kts 280°
2026-04-18 04:50 40.99588 -117.68936 36217 ft 357 kts 280°
2026-04-18 04:50 40.99921 -117.75463 36206 ft 353 kts 280°
2026-04-18 04:51 41.00242 -117.81855 36207 ft 347 kts 280°
2026-04-18 04:51 41.00559 -117.88195 36202 ft 343 kts 280°
2026-04-18 04:52 41.00866 -117.94450 36212 ft 338 kts 280°
2026-04-18 04:52 41.01167 -118.00625 36207 ft 334 kts 281°
2026-04-18 04:53 41.01464 -118.06742 36223 ft 334 kts 281°
2026-04-18 04:53 41.01760 -118.12923 36229 ft 339 kts 281°
2026-04-18 04:54 41.02057 -118.19198 36222 ft 343 kts 280°
2026-04-18 04:54 41.02354 -118.25548 36221 ft 348 kts 280°
2026-04-18 04:55 41.02651 -118.31977 36209 ft 352 kts 280°
2026-04-18 04:55 41.02947 -118.38472 36208 ft 355 kts 280°
2026-04-18 04:56 41.03390 -118.48332 36211 ft 360 kts 280°
2026-04-18 04:56 41.03684 -118.54986 36225 ft 364 kts 280°
2026-04-18 04:57 41.03976 -118.61668 36231 ft 368 kts 280°
2026-04-18 04:57 41.04273 -118.68463 36223 ft 372 kts 280°
2026-04-18 04:58 41.04565 -118.75329 36222 ft 375 kts 279°
2026-04-18 04:58 41.04856 -118.82266 36220 ft 379 kts 279°
2026-04-18 04:59 41.05144 -118.89265 36212 ft 382 kts 279°
2026-04-18 04:59 41.05431 -118.96311 36217 ft 384 kts 279°
2026-04-18 05:00 41.05713 -119.03399 36222 ft 387 kts 279°
2026-04-18 05:00 41.05995 -119.10539 36215 ft 389 kts 279°
2026-04-18 05:01 41.06272 -119.17710 36200 ft 391 kts 279°
2026-04-18 05:01 41.06546 -119.24908 36201 ft 392 kts 279°
2026-04-18 05:02 41.06818 -119.32130 36195 ft 393 kts 279°
2026-04-18 05:02 41.07085 -119.39382 36199 ft 395 kts 279°
2026-04-18 05:03 41.07348 -119.46617 36200 ft 396 kts 279°
2026-04-18 05:03 41.07609 -119.53928 36202 ft 398 kts 279°
2026-04-18 05:04 41.07864 -119.61268 36194 ft 399 kts 279°
2026-04-18 05:04 41.08117 -119.68635 36185 ft 401 kts 279°
2026-04-18 05:05 41.08368 -119.76015 36180 ft 401 kts 279°
2026-04-18 05:05 41.08609 -119.83420 36184 ft 402 kts 278°
2026-04-18 05:06 41.08726 -119.90857 36181 ft 406 kts 276°
2026-04-18 05:06 41.08514 -119.98357 36158 ft 408 kts 274°
2026-04-18 05:07 41.08260 -120.05791 36174 ft 408 kts 274°
2026-04-18 05:07 41.07250 -120.13037 36213 ft 440 kts 231°
2026-04-18 05:08 41.05290 -120.15996 36286 ft 419 kts 251°
2026-04-18 05:08 41.04488 -120.19620 36256 ft 398 kts 271°
2026-04-18 05:08 41.04576 -120.23161 36236 ft 386 kts 286°
2026-04-18 05:08 41.05351 -120.26527 36225 ft 380 kts 295°
2026-04-18 05:09 41.06938 -120.33272 36200 ft 389 kts 285°
2026-04-18 05:09 41.07151 -120.40541 36182 ft 401 kts 273°
2026-04-18 05:10 41.06698 -120.47941 35916 ft 403 kts 272°
2026-04-18 05:10 41.06509 -120.51641 35245 ft 403 kts 274°
2026-04-18 05:10 41.06375 -120.55355 34590 ft 403 kts 275°
2026-04-18 05:11 41.06240 -120.59072 33914 ft 404 kts 275°
2026-04-18 05:11 41.06098 -120.62796 33126 ft 406 kts 274°
2026-04-18 05:11 41.05952 -120.66545 32332 ft 409 kts 274°
2026-04-18 05:11 41.05807 -120.70321 31506 ft 412 kts 274°
2026-04-18 05:12 41.05657 -120.74108 30896 ft 410 kts 274°
2026-04-18 05:12 41.05507 -120.77861 30361 ft 408 kts 274°
2026-04-18 05:12 41.05357 -120.81563 29816 ft 405 kts 274°
2026-04-18 05:12 41.05207 -120.85270 29244 ft 402 kts 274°
2026-04-18 05:13 41.05055 -120.88961 28730 ft 399 kts 274°
2026-04-18 05:13 41.04904 -120.92613 28225 ft 396 kts 274°
2026-04-18 05:13 41.04754 -120.96237 27734 ft 393 kts 274°
2026-04-18 05:13 41.04605 -120.99845 27260 ft 391 kts 274°
2026-04-18 05:14 41.04453 -121.03419 26846 ft 388 kts 274°
2026-04-18 05:14 41.04301 -121.06922 26861 ft 374 kts 274°
2026-04-18 05:14 41.04203 -121.09170 26861 ft 366 kts 274°
2026-04-18 05:14 41.04011 -121.13598 26580 ft 357 kts 274°
2026-04-18 05:15 41.03920 -121.15814 25856 ft 371 kts 274°
2026-04-18 05:15 41.03774 -121.19269 25276 ft 376 kts 274°
2026-04-18 05:15 41.03619 -121.22715 24898 ft 374 kts 274°
2026-04-18 05:15 41.03466 -121.26141 24553 ft 372 kts 273°
2026-04-18 05:16 41.03313 -121.29559 24201 ft 371 kts 273°
2026-04-18 05:16 41.03160 -121.32957 23863 ft 369 kts 273°
2026-04-18 05:16 41.03011 -121.36334 23508 ft 367 kts 273°
2026-04-18 05:16 41.02855 -121.39700 23128 ft 366 kts 273°
2026-04-18 05:17 41.02705 -121.43062 22772 ft 364 kts 272°
2026-04-18 05:17 41.02551 -121.46404 22415 ft 363 kts 273°
2026-04-18 05:17 41.02396 -121.49730 22082 ft 361 kts 272°
2026-04-18 05:17 41.02243 -121.53047 21786 ft 360 kts 272°
2026-04-18 05:18 41.02088 -121.56350 21466 ft 359 kts 272°
2026-04-18 05:18 41.01931 -121.59651 21156 ft 358 kts 273°
2026-04-18 05:18 41.01777 -121.62938 20862 ft 357 kts 272°
2026-04-18 05:18 41.01625 -121.66213 20568 ft 356 kts 272°
2026-04-18 05:19 41.01469 -121.69480 20335 ft 354 kts 272°
2026-04-18 05:19 41.01309 -121.72712 20240 ft 348 kts 272°
2026-04-18 05:19 41.01156 -121.75863 20184 ft 350 kts 272°
2026-04-18 05:19 41.00998 -121.79121 20127 ft 359 kts 272°
2026-04-18 05:20 41.00838 -121.82457 20091 ft 363 kts 271°
2026-04-18 05:20 41.00669 -121.85789 19689 ft 364 kts 271°
2026-04-18 05:20 41.00505 -121.89127 19344 ft 362 kts 271°
2026-04-18 05:20 41.00339 -121.92454 19005 ft 362 kts 271°
2026-04-18 05:21 41.00170 -121.95775 18688 ft 361 kts 271°
2026-04-18 05:21 41.00006 -121.99076 18357 ft 359 kts 272°
2026-04-18 05:21 40.99928 -122.02371 18001 ft 356 kts 274°
2026-04-18 05:21 40.99937 -122.05646 17658 ft 355 kts 275°
2026-04-18 05:22 40.99972 -122.08915 17282 ft 354 kts 275°
2026-04-18 05:22 41.00004 -122.12124 16940 ft 353 kts 275°
2026-04-18 05:22 41.00028 -122.15369 16610 ft 352 kts 274°
2026-04-18 05:22 41.00028 -122.18609 16316 ft 351 kts 274°
2026-04-18 05:23 41.00023 -122.21837 16019 ft 350 kts 274°
2026-04-18 05:23 41.00021 -122.25059 15660 ft 349 kts 274°
2026-04-18 05:23 41.00021 -122.28273 15351 ft 349 kts 274°
2026-04-18 05:23 41.00014 -122.31478 15162 ft 346 kts 274°
2026-04-18 05:24 41.00004 -122.34639 15081 ft 341 kts 274°
2026-04-18 05:24 40.99994 -122.37749 15025 ft 335 kts 274°
2026-04-18 05:24 40.99985 -122.40758 15020 ft 329 kts 274°
2026-04-18 05:24 40.99976 -122.43759 14994 ft 323 kts 274°
2026-04-18 05:25 40.99963 -122.46716 14987 ft 319 kts 274°
2026-04-18 05:25 40.99948 -122.49627 14956 ft 314 kts 274°
2026-04-18 05:25 40.99936 -122.52493 14969 ft 309 kts 274°
2026-04-18 05:25 40.99922 -122.55316 14971 ft 305 kts 274°
2026-04-18 05:26 40.99912 -122.58108 14963 ft 301 kts 274°
2026-04-18 05:26 40.99896 -122.60874 14973 ft 302 kts 274°
2026-04-18 05:26 40.99885 -122.63734 14968 ft 318 kts 274°
2026-04-18 05:26 40.99874 -122.66713 14973 ft 331 kts 274°
2026-04-18 05:27 40.99858 -122.69820 14985 ft 343 kts 273°
2026-04-18 05:27 40.99838 -122.73025 14985 ft 352 kts 273°
2026-04-18 05:27 40.99822 -122.76279 14997 ft 355 kts 272°
2026-04-18 05:27 40.99784 -122.79571 14995 ft 358 kts 272°
2026-04-18 05:28 40.99738 -122.82873 14988 ft 360 kts 272°
2026-04-18 05:28 40.99698 -122.86154 14996 ft 352 kts 272°
2026-04-18 05:28 40.99672 -122.89316 14999 ft 345 kts 273°
2026-04-18 05:28 40.99654 -122.92457 14987 ft 338 kts 273°
2026-04-18 05:29 40.99632 -122.95553 14986 ft 334 kts 272°
2026-04-18 05:29 40.99400 -122.98601 14995 ft 335 kts 264°
2026-04-18 05:29 40.99070 -123.01686 15005 ft 342 kts 265°
2026-04-18 05:29 40.98297 -123.04719 14997 ft 358 kts 243°
2026-04-18 05:30 40.96676 -123.07290 15008 ft 370 kts 227°
2026-04-18 05:30 40.94806 -123.09685 15016 ft 375 kts 229°
2026-04-18 05:30 40.93040 -123.12242 14983 ft 378 kts 234°
2026-04-18 05:30 40.91447 -123.15017 14974 ft 380 kts 238°
2026-04-18 05:31 40.89973 -123.17922 14978 ft 382 kts 240°
2026-04-18 05:31 40.88485 -123.20850 14968 ft 385 kts 239°
2026-04-18 05:31 40.86972 -123.23790 14978 ft 388 kts 239°
2026-04-18 05:31 40.85439 -123.26747 14996 ft 391 kts 239°
2026-04-18 05:32 40.83891 -123.29714 14987 ft 393 kts 238°
2026-04-18 05:32 40.82328 -123.32663 14626 ft 393 kts 238°
2026-04-18 05:32 40.80777 -123.35600 14402 ft 383 kts 238°
2026-04-18 05:32 40.79274 -123.38423 14394 ft 369 kts 238°
2026-04-18 05:33 40.77832 -123.41116 14421 ft 359 kts 238°
2026-04-18 05:33 40.76398 -123.43763 14421 ft 349 kts 238°
2026-04-18 05:33 40.75001 -123.46330 14440 ft 341 kts 238°
2026-04-18 05:33 40.73652 -123.48855 14450 ft 332 kts 238°
2026-04-18 05:34 40.72346 -123.51299 14351 ft 320 kts 239°
2026-04-18 05:34 40.71094 -123.53657 14201 ft 312 kts 239°
2026-04-18 05:34 40.69848 -123.55994 13881 ft 310 kts 239°
2026-04-18 05:34 40.68615 -123.58315 13547 ft 308 kts 238°
2026-04-18 05:35 40.67381 -123.60619 13210 ft 307 kts 238°
2026-04-18 05:35 40.66177 -123.62936 12863 ft 304 kts 243°
2026-04-18 05:35 40.65040 -123.65277 12493 ft 307 kts 231°
2026-04-18 05:35 40.63295 -123.66905 12162 ft 312 kts 205°
2026-04-18 05:36 40.61165 -123.67469 11807 ft 315 kts 182°
2026-04-18 05:36 40.58985 -123.67424 11502 ft 313 kts 179°
2026-04-18 05:36 40.56815 -123.67295 11182 ft 312 kts 178°
2026-04-18 05:36 40.54654 -123.67134 10868 ft 310 kts 177°
2026-04-18 05:37 40.52520 -123.66822 10532 ft 308 kts 164°
2026-04-18 05:37 40.50514 -123.65868 10223 ft 306 kts 157°
2026-04-18 05:37 40.48566 -123.64832 9884 ft 304 kts 158°
2026-04-18 05:37 40.46476 -123.64374 9538 ft 302 kts 184°
2026-04-18 05:38 40.44445 -123.64839 9190 ft 299 kts 187°
2026-04-18 05:38 40.42405 -123.64555 8836 ft 296 kts 159°
2026-04-18 05:38 40.40599 -123.63314 8505 ft 292 kts 152°
2026-04-18 05:38 40.38643 -123.62692 8143 ft 291 kts 180°
2026-04-18 05:39 40.36687 -123.63282 7775 ft 289 kts 207°
2026-04-18 05:39 40.35156 -123.64923 7507 ft 282 kts 234°
2026-04-18 05:39 40.34372 -123.67204 7312 ft 274 kts 261°
2026-04-18 05:39 40.34466 -123.69659 6957 ft 270 kts 289°
2026-04-18 05:40 40.35412 -123.71746 6576 ft 268 kts 317°
2026-04-18 05:40 40.36921 -123.73143 6186 ft 265 kts 331°
2026-04-18 05:40 40.38520 -123.74337 5834 ft 264 kts 333°
2026-04-18 05:40 40.40130 -123.75469 5477 ft 262 kts 334°
2026-04-18 05:41 40.41744 -123.76562 5103 ft 260 kts 334°
2026-04-18 05:41 40.43343 -123.77626 4877 ft 253 kts 334°
2026-04-18 05:41 40.44882 -123.78640 4763 ft 242 kts 334°
2026-04-18 05:41 40.46348 -123.79604 4717 ft 229 kts 335°
2026-04-18 05:42 40.47718 -123.80504 4697 ft 217 kts 335°
2026-04-18 05:42 40.49032 -123.81364 4694 ft 205 kts 335°
2026-04-18 05:42 40.50287 -123.82154 4690 ft 194 kts 336°
2026-04-18 05:42 40.51480 -123.82890 4689 ft 184 kts 336°
2026-04-18 05:43 40.52606 -123.83578 4664 ft 173 kts 336°
2026-04-18 05:43 40.53660 -123.84227 4663 ft 161 kts 336°
2026-04-18 05:43 40.54697 -123.84857 4678 ft 176 kts 337°
2026-04-18 05:43 40.55905 -123.85585 4710 ft 203 kts 336°
2026-04-18 05:44 40.57263 -123.86399 4728 ft 224 kts 336°
2026-04-18 05:44 40.58747 -123.87286 4756 ft 244 kts 336°
2026-04-18 05:44 40.60345 -123.88169 4764 ft 261 kts 341°
2026-04-18 05:44 40.62120 -123.88947 4768 ft 277 kts 343°
2026-04-18 05:45 40.63968 -123.89716 4752 ft 271 kts 343°
2026-04-18 05:45 40.65706 -123.90430 4736 ft 253 kts 343°
2026-04-18 05:45 40.67338 -123.91092 4719 ft 238 kts 344°
2026-04-18 05:45 40.68872 -123.91713 4719 ft 224 kts 343°
2026-04-18 05:46 40.70320 -123.92299 4704 ft 212 kts 343°
2026-04-18 05:46 40.71654 -123.92989 4705 ft 199 kts 335°
2026-04-18 05:46 40.72870 -123.93784 4615 ft 193 kts 335°
2026-04-18 05:46 40.74030 -123.94501 4788 ft 172 kts 337°
2026-04-18 05:47 40.75133 -123.95203 4968 ft 177 kts 332°
2026-04-18 05:47 40.76174 -123.95996 4818 ft 168 kts 328°
2026-04-18 05:47 40.77192 -123.96806 4402 ft 169 kts 332°
2026-04-18 05:47 40.78210 -123.97535 4078 ft 174 kts 333°
2026-04-18 05:48 40.79339 -123.98307 3821 ft 187 kts 334°
2026-04-18 05:48 40.80480 -123.99108 3927 ft 187 kts 333°
2026-04-18 05:48 40.81656 -123.99921 3738 ft 195 kts 332°
2026-04-18 05:48 40.82855 -124.00757 3638 ft 195 kts 333°
2026-04-18 05:49 40.84090 -124.01612 3333 ft 204 kts 334°
2026-04-18 05:49 40.85332 -124.02477 3108 ft 196 kts 333°
2026-04-18 05:49 40.86500 -124.03282 2789 ft 185 kts 334°
2026-04-18 05:49 40.87577 -124.04017 2375 ft 165 kts 333°
2026-04-18 05:50 40.88564 -124.04664 1897 ft 156 kts 335°
2026-04-18 05:50 40.89534 -124.05292 1452 ft 157 kts 333°
2026-04-18 05:50 40.90508 -124.05942 1213 ft 155 kts 333°
2026-04-18 05:50 40.91457 -124.06579 977 ft 149 kts 333°
2026-04-18 05:51 40.92336 -124.07180 725 ft 140 kts 334°
2026-04-18 05:51 40.93244 -124.07745 620 ft 142 kts 337°
2026-04-18 05:51 40.94093 -124.08290 429 ft 138 kts 332°
2026-04-18 05:51 40.94958 -124.08906 312 ft 138 kts 333°
2026-04-18 05:52 40.95817 -124.09514 316 ft 140 kts 335°
2026-04-18 05:52 40.96628 -124.10030 266 ft 131 kts 334°
2026-04-18 05:52 40.97365 -124.10516 221 ft 93 kts 333°
2026-04-18 05:52 40.97570 -124.10662 222 ft 0 kts 332°
2026-04-18 05:53 40.97586 -124.10674 219 ft 11 kts 332°
2026-04-18 05:53 40.97728 -124.10776 208 ft 31 kts 328°
2026-04-18 05:53 40.97987 -124.10946 202 ft 50 kts 334°
2026-04-18 05:53 40.98292 -124.11152 203 ft 41 kts 333°
2026-04-18 05:54 40.98467 -124.11286 195 ft 19 kts 313°
2026-04-18 05:54 40.98460 -124.11358 196 ft 8 kts 180°
2026-04-18 05:54 40.98416 -124.11350 197 ft 0 kts 165°
2026-04-18 05:55 40.98374 -124.11326 201 ft 13 kts 152°
2026-04-18 05:56 40.98272 -124.11256 196 ft 19 kts 153°
2026-04-18 05:56 40.98146 -124.11172 204 ft 21 kts 153°
2026-04-18 05:56 40.98007 -124.11081 206 ft 20 kts 154°
2026-04-18 05:56 40.97892 -124.11006 211 ft 18 kts 152°
2026-04-18 05:57 40.97631 -124.10821 212 ft 24 kts 152°
2026-04-18 05:57 40.97518 -124.10744 218 ft 19 kts 153°
2026-04-18 05:57 40.97393 -124.10661 218 ft 16 kts 153°
2026-04-18 05:58 40.97288 -124.10614 221 ft 13 kts 208°
2026-04-18 05:58 40.97233 -124.10623 221 ft 8 kts 149°
2026-04-18 05:58 40.97171 -124.10593 223 ft 9 kts 185°
2026-04-18 05:58 40.97148 -124.10625 222 ft 2 kts 241°
2026-04-18 05:59 40.97147 -124.10627 222 ft 0 kts 241°
2026-04-18 06:01 40.97147 -124.10626 222 ft 0 kts 241°
2026-04-18 06:07 40.97148 -124.10626 222 ft 0 kts 241°
2026-04-18 06:09 40.97148 -124.10625 222 ft 0 kts 241°